Regional Weather Roundup
Issued by NWS Charleston, SC

Current Version | Previous Version | Graphics & Text | Print | Product List | Glossary On
Versions: 1 2 3 4 5 6 7 8 9 10 11 12 13 14 15 16 17 18 19 20 21 22 23 24 25 26 27 28 29 30 31 32 33 34 35 36 37 38 39 40 41 42 43 44 45 46 47 48 49 50
000
ASUS42 KCHS 251327
RWRCHS

REGIONAL WEATHER ROUNDUP
NATIONAL WEATHER SERVICE CHARLESTON SC
900 AM EDT TUE APR 25 2017

NOTE: "FAIR" INDICATES FEW OR NO CLOUDS BELOW 12,000 FEET WITH NO
SIGNIFICANT WEATHER AND/OR OBSTRUCTIONS TO VISIBILITY.

NOT ALL STATIONS ARE QUALITY CONTROLLED. USE DATA WITH CAUTION...
ESPECIALLY DEWPOINT OBSERVATIONS.

SCZ027-030-031-034>040-042>050-251400-
...SOUTHEAST SOUTH CAROLINA...

CITY           SKY/WX    TMP DP  RH WIND       PRES   REMARKS
N CHARLESTON   LGT RAIN  59  56  89 W14       29.72R FOG
WATERFRONT PRK   N/A     60  59  96 W8        29.70R
JOHNS ISLAND   CLOUDY    61  59  94 W12       29.72R
PINOPOLIS        N/A     59  57  94 W14       29.61R
MONCKS CORNER  CLOUDY    57  55  94 W7        29.71S FOG
SUMMERVILLE    CLOUDY    57  55  94 W8        29.73R
BEAUFORT MCAS  DRIZZLE   60  58  92 NW13      29.74R
BEAUFORT ARPT  CLOUDY    61  55  82 W13G18    29.74R FOG
HILTON HEAD IS DRIZZLE   59  57  94 NW9       29.74
WALTERBORO     CLOUDY    57  55  94 W10       29.74S
ALLENDALE      CLOUDY    59  57  94 CALM      29.74S

...SOUTHERN MIDLANDS AND PEE DEE...

CITY           SKY/WX    TMP DP  RH WIND       PRES   REMARKS
GEORGETOWN     CLOUDY    59  57  94 W9        29.68S
KINGSTREE      DRIZZLE  N/A N/A N/A W9        29.68R
ORANGEBURG     CLOUDY    57  56  96 NW8       29.72S FOG
BARNWELL       CLOUDY    61  57  88 NW6G13    29.75R
AIKEN          CLOUDY    57  54  88 NW7       29.78R
MANNING        CLOUDY    55  54  94 W16       29.70S FOG
COLUMBIA       CLOUDY    60  56  86 W10       29.71R
SUMTER         DRIZZLE   57  55  94 W9        29.67R FOG
FLORENCE       CLOUDY    59  58  96 W9        29.65R
MYRTLE BEACH   CLOUDY    61  57  88 W10       29.65R
N MYRTLE BEACH LGT RAIN  60  59  96 W8        29.64R

$$

GAZ063-065-086>088-099>101-113>116-118-119-134>141-150-251400-
...SOUTHEAST GEORGIA...

CITY           SKY/WX    TMP DP  RH WIND       PRES   REMARKS
SAVANNAH ARPT  CLOUDY    61  53  75 W15G23    29.75R
HUNTER AAF     CLOUDY    62  57  86 W15       29.72R
FORT STEWART   CLOUDY    63  55  75 W14       29.74R
STATESBORO     CLOUDY    61  60  99 NW10      29.77R
SYLVANIA       CLOUDY   N/A N/A N/A NW7       29.77R
CLAXTON        CLOUDY    60  60 100 W10       29.79R

...CSRA...CENTRAL AND FAR SOUTHEAST GEORGIA...

CITY           SKY/WX    TMP DP  RH WIND       PRES   REMARKS
THOMSON        PTSUNNY   60  56  86 NW3       29.80S
AUGUSTA-BUSH   CLOUDY    63  56  78 NW8       29.74R
AUGUSTA-DANIEL CLOUDY    61  54  77 NW7       29.75R
SWAINSBORO     FAIR      63  55  77 NW7       29.78S
VIDALIA        MOSUNNY   64  55  72 N8        29.78R
EASTMAN        FAIR      65  51  62 NW5       29.82R
HAZLEHURST     FAIR      65  59  80 N6        29.78R
ALMA           CLOUDY    61  58  90 NW9       29.78R
WAYCROSS       SUNNY     68  62  79 NW10      29.79R
JESUP          CLOUDY    64  55  72 NW9       29.79R
BAXLEY         PTSUNNY   64  63  94 N9        29.78R
BRUNSWICK      CLOUDY    64  59  82 W12G20    29.78R
SAINT SIMONS   HVY RAIN  65  57  75 VRB7      29.77R

$$

SCZ027-028-034-036>038-045-046-048>050-GAZ119-141-251400-
...LAKE AND SUPPLEMENTAL COASTAL OBSERVATIONS...

STATION/POSITION TIME  TEMP    WIND        PRES    WAVE   SWELL
                       AIR SEA DIR/SP/G            HT/PER HT/PER/DIR
                 (UTC) (F)     (DEG/KT/KT) (MB)    (FT/S) (FT/S/D)
WINYAH BAY       1230   59     260/  8     1004.0R
LAKE MURRAY      1220   56     310/  2/  5 1006.1R
ACE BASIN NERRS  1245   59     270/  4     1007.0R
FORT PULASKI     1300   61 73  320/ 14/ 17 1007.4
SAPELO ISLAND    1230   62     280/  9     1007.0S

$$

ANZ835-935-AMZ111-154-330-350-352-354-370-450-454-472-251400-
...C-MAN AND BUOY OBSERVATIONS...

STATION/POSITION TIME  TEMP    WIND        PRES    WAVE   SWELL
                       AIR SEA DIR/SP/G            HT/PER HT/PER/DIR
                 (UTC) (F)     (DEG/KT/KT) (MB)    (FT/S) (FT/S/D)
BUOY 41004       1300   65 72  280/ 19/ 25 1004.9
BUOY 41008       1250   64 71  280/ 17/ 23 1006.8R   4/ 4   2/ 70/ 9
FOLLY BEACH CMAN 1300   61     290/  9/ 13 1006.6R
CAPERS NEARSHORE 1308   63 71  290/ 16/ 21 1005.4R
FRIPP NEARSHORE  1308   61 70  300/ 16/ 19 1006.7R


STATION/POSITION TIME  TEMP    WIND        PRES    WAVE   SWELL
                       AIR SEA DIR/SP/G            HT/PER HT/PER/DIR
                 (UTC) (F)     (DEG/KT/KT) (MB)    (FT/S) (FT/S/D)
5E ST. MARYS GA  1300      72                N/A     3/12   2/ 90/12
FRYING PAN BUOY  1300   67     250/ 17/ 21 1003.0
BUOY 41025       1250   73 78  170/ 12/ 14 1003.6R  12/12  11/130/12
CAPE LOOKOUT NC  1300   68     320/  4/  5 1002.4R
BUOY 41002       1250   72 75  200/ 14/ 17 1006.2R   9/10   7/110/10
BUOY 41010       1300   72     270/ 17/ 23 1009.1
ST AUGUSTINE FL  1300   64 72  290/  7/  9 1010.0R


$$




USA.gov is the U.S. government's official web portal to all federal, state and local government web resources and services.